DELTA 1 DEB, 3416

Orbit data source: Space-Track

DELTA 1 DEB, 3416 is space debris in SSO originally from a launch on Fri, 16 Aug 1968 UTC launched from the Air Force Western Test Range (AFWTR). Debris objects in space refer to the collection of defunct objects orbiting the Earth. Examples of debris include non-operational satellites, rocket bodies, and fragments generated from explosions, collisions, or faulty payload assembly.

Loading next visibility...
Identifier
3416, 1968-069C
Orbit
SSO
Country
Flag of USUS
Related business
Manufacturer
Unknown
Mission
Spacecraft
Bus & Motor
Unknown
Mass
Unknown
Launch date (UTC)
1968-08-16 (57 years ago)
Launch vehicle
Unknown
Launch site
Air Force Western Test Range (AFWTR)
Object type
Payload
Rocket body
Debris
Shape & HBR
Unknown shape, 0.1 m
Radar Cross Section
Small (<0.1 m²)

Expand to show TLE details & history
Last TLE update: 1 day ago

TLE from 1 day ago
0 DELTA 1 DEB
1 03416U 68069C   26035.33576855 -.00000028  00000-0  90641-4 0  9996
2 03416 101.7000 167.9030 0119068  53.7699 332.3777 12.67150485657442
Epoch: 2026-02-04T08:03Z
TLE epoch observation values (Epoch: 2026-02-04T08:03:30.402Z)
Latitude
24.96921°
Longitude
-92.98346°
Altitude
1,314.551 km
Speed
7.24 km/s
True Right ascension
10h 49m 35s
True Declination
24° 50' 51"
Sunlit
Object was in full shadow at epoch
Visualization orbit readout
Latitude
Unknown
Longitude
Unknown
Altitude
Unknown
Speed
Unknown
Apparent Right ascension
Unknown
Apparent Declination
Unknown
Sunlit
N/A
Visualization observer readout
Local Sidereal Time
19:31:22
Azimuth
Unknown
Elevation
Unknown
Doppler factor
Unknown
Orbital elements
Apogee altitude
1,483.597 km
Perigee altitude
1,298.584 km
Semi-major axis
7,769.227 km
Eccentricity
0.01191
Inclination
101.7°
RAAN
167.903°
Arg. of periapsis
53.7699°
True anomaly
331.73666°
Mean anomaly
332.3777°
Eccentric anomaly
332.05803°
Mean motion
3.1694 °/min
Orbital period
113.59 mins
BSTAR
0.000090641
Loading maneuver chart data...
Computing Atmospheric mass density...
Loading historical data...
Loading historical data...
Loading historical data...
Loading historical data...
Loading historical data...
Loading historical data...
Loading historical data...

Documentation

Showing up to 5 results
|